Orbital Elements at Epoch 2459200.5 (2020-Dec-17.0) TDB
Reference: JPL 19 (heliocentric ecliptic J2000)
Element | Value | Uncertainty (1-sigma) | Units |
e | .1574793507408991 | 3.9445e-08 | |
a | 2.333720997346225 | 9.0484e-09 | au |
q | 1.966208129873738 | 9.1055e-08 | au |
i | 7.370605038116056 | 4.5496e-06 | deg |
node | 274.5013755035512 | 3.4865e-05 | deg |
peri | 109.1622316373205 | 3.9146e-05 | deg |
M | 127.4550980998845 | 1.5123e-05 | deg |
tp | 2458739.472811326735 (2019-Sep-12.97281133) | 5.4654e-05 | TDB |
period | 1302.182418723711 3.57 | 7.5733e-06 2.073e-08 | d yr |
n | .2764589621420642 | 1.6078e-09 | deg/d |
Q | 2.701233864818712 | 1.0473e-08 | au |
|
| | Orbit Determination Parameters
Additional Information
|